Regional Weather Roundup
Issued by NWS

Home | Current Version | Previous Version | Graphics & Text | Print | Product List | Glossary On
Versions: 1 2 3 4 5 6 7 8 9 10 11 12 13 14 15 16 17 18 19 20 21 22 23 24 25 26 27 28 29 30 31 32 33 34 35 36 37 38 39 40 41 42 43 44 45 46 47 48 49 50
000
ASUS43 KDMX 152301
RWRIA

WEATHER ROUNDUP FOR IOWA
NATIONAL WEATHER SERVICE DES MOINES IA
600 PM CDT SUN OCT 15 2017

NOTE: "FAIR" INDICATES FEW OR NO CLOUDS BELOW 12,000 FEET WITH NO
SIGNIFICANT WEATHER AND/OR OBSTRUCTIONS TO VISIBILITY.

* - THESE STATIONS ARE NOT NWS STATIONS...THUS NOT UNDER NWS
QUALITY CONTROL.  THEY ALSO DO NOT REPORT WEATHER SUCH
AS PRECIPITATION OR FOG.

IAZ001>003-012>014-020>022-031>034-043>046-160000-
   NORTHWEST IOWA

CITY           SKY/WX    TMP DP  RH WIND       PRES   REMARKS
CARROLL *      CLEAR     63  39  42 W12       30.27S
CHEROKEE *     CLEAR     56  32  40 W9        30.25S
DENISON *      CLEAR     57  32  38 W8G16     30.28F
LE MARS *      CLEAR     59  32  36 W9G15     30.24F
ORANGE CITY *  CLEAR     57  37  47 W7        30.24S
SHELDON *      PTCLDY    55  32  41 SW7       30.21F
SIOUX CITY     CLEAR     61  32  33 W10G21    30.25F
SPENCER        CLEAR     56  32  40 W13       30.23S
STORM LAKE *   CLEAR     55  32  41 W9        30.25S
$$

IAZ055>058-069>071-079>083-090>094-160000-
   SOUTHWEST IOWA

CITY           SKY/WX    TMP DP  RH WIND       PRES   REMARKS
ATLANTIC *     CLEAR     57  34  41 W9        30.29S
AUDUBON *      CLEAR     55  34  44 W5        30.29S
CLARINDA *     CLEAR     57  32  38 NW8       30.34S
COUNCIL BLFS * CLEAR     59  34  38 W12       30.30S
CRESTON *      CLEAR     55  32  41 NW14      30.31S
HARLAN  *      CLEAR     57  32  38 W10       30.32S
LAMONI         CLEAR     56  34  43 NW9       30.30R
RED OAK *      CLEAR     57  34  41 W6G13     30.32R
SHENANDOAH *   CLEAR     59  34  38 W8        30.33S
$$

IAZ047>049-059>061-072>074-084-160000-
   CENTRAL IOWA

CITY           SKY/WX    TMP DP  RH WIND       PRES   REMARKS
AMES           CLEAR     56  32  40 W9        30.26S
ANKENY *       CLEAR     55  32  41 NW9       30.28R
BOONE *        CLEAR     55  32  41 NW8G17    30.26R
CHARITON *     CLEAR     55  36  47 NW12      30.28R
DES MOINES     CLEAR     57  32  38 NW9       30.27R
GRINNELL*      CLEAR     55  34  45 W7        30.26S
KNOXVILLE *    CLEAR     55  32  41 NW12      30.26S
MARSHALLTOWN   PTCLDY    54  32  43 W12       30.25R
NEWTON *       CLEAR     55  32  41 NW10      30.26S
PELLA *        CLEAR     56  34  42 W7        30.28R
$$

IAZ004>006-015-016-023>025-035-036-160000-
   NORTH CENTRAL IOWA

CITY           SKY/WX    TMP DP  RH WIND       PRES   REMARKS
ALGONA *       PTCLDY    55  34  44 W9        30.23F
CLARION *      CLEAR     55  34  44 W12G17    30.24S
ESTHERVILLE    CLEAR     54  33  45 W9        30.21F
FORT DODGE *   CLEAR     55  33  43 W9        30.26R
MASON CITY     CLEAR     50  31  48 W6        30.24S
FOREST CITY *    N/A     52  32  46 NW7       30.23S
WEBSTER CITY * CLEAR     55  32  41 W13       30.24S
IOWA FALLS *     N/A     55  32  41 W9        30.26R
$$

IAZ007>011-017>019-026>030-037>042-050>054-066-160000-
   NORTHEAST IOWA

CITY           SKY/WX    TMP DP  RH WIND       PRES   REMARKS
CEDAR RAPIDS   CLEAR     52  39  61 N6        30.24S
CHARLES CITY * MOCLDY    54  32  43 W9        30.23S
CLINTON *      CLOUDY    51  39  63 NW9       30.25R
DECORAH *      PTCLDY    50  37  62 VRB6      30.20S
DUBUQUE        CLOUDY    49  40  71 NW6       30.23R
MONTICELLO *   MOCLDY    52  39  62 NW8       30.24S
OELWEIN *      PTCLDY    52  39  62 W5        30.23S
WATERLOO       CLEAR     53  33  46 W7        30.23R
$$

IAZ064-065-067-068-078-160000-
   EAST CENTRAL IOWA

CITY           SKY/WX    TMP DP  RH WIND       PRES   REMARKS
DAVENPORT      CLOUDY    51  39  63 NW12      30.27R
IOWA CITY      PTCLDY    54  39  57 NW6       30.27S
MUSCATINE *    PTCLDY    52  39  62 NW8       30.27S
QUAD CITIES    CLOUDY    52  39  61 W13       30.25R
$$

IAZ062-063-075>077-085>089-095>099-160000-
   SOUTHEAST IOWA

CITY           SKY/WX    TMP DP  RH WIND       PRES   REMARKS
BURLINGTON     CLEAR     52  40  63 NW9G17    30.27R
FAIRFIELD *    PTCLDY    54  37  54 NW7       30.26S
FORT MADISON * CLEAR     52  43  71 NW7       30.28R
KEOKUK *       MOCLDY    55  41  58 NW7       30.27R
OTTUMWA        CLEAR     54  37  52 NW10      30.26S
WASHINGTON *   PTCLDY    52  41  66 NW3       30.27S
$$

ABBREVIATIONS USED IN REMARKS
   TC - TEMPERATURES IN CELSIUS
  WCI - WIND CHILL INDEX
   HX - HEAT INDEX
  VSB - VISIBILITY
$$





USA.gov is the U.S. government's official web portal to all federal, state and local government web resources and services.